[[{"header":{"parameterUnit":"m.s-1","parameterCategory":1,"la1":30.2991,"la2":30.254,"lo1":-89.0895,"lo2":-89.0444,"dy":0.0017,"dx":0.0017,"nx":28,"ny":28,"refTime":"2024-10-17T21:00:00:Z","depth":0,"parameterNumber":2,"parameterNumberName":"U-component_of_WINDS"},"data":[0,0,0,0,0,0,0,0,0,0,0,0,0,0,0,0,0,0,0,0,0,0,0,0,0,0,0,0,0,0,0,0,0,0,0,0,0,0,0,0,0,0,0,0,0,0,0,0,0,0,0,0,0,0,0,0,0,0,-2.559,-2.559,0,-2.5544,-2.5543,-2.5543,-2.5445,-2.5444,-2.5442,-2.544,-2.5396,-2.5396,-2.5397,0,0,0,0,0,0,0,0,0,0,0,0,0,-2.5599,-2.5599,-2.559,-2.559,-2.5589,-2.5544,-2.5543,-2.5542,-2.5446,-2.5443,-2.5441,-2.5439,-2.5395,-2.5396,-2.5397,0,0,0,0,0,0,0,0,0,0,0,0,0,-2.5578,-2.5599,-2.559,-2.5535,-2.553,-2.5544,-2.5543,-2.5542,-2.5446,-2.5443,-2.544,-2.5438,-2.5395,-2.5396,-2.5397,-2.5462,0,0,-2.54,-2.5401,0,0,0,0,0,0,0,0,-2.5579,-2.5578,-2.5544,-2.5539,-2.5533,-2.5497,-2.553,-2.5516,-2.5447,-2.5478,-2.544,-2.5436,-2.5432,-2.543,-2.5428,-2.546,-2.5458,-2.54,-2.5401,-2.5401,-2.5401,0,0,0,0,0,0,0,-2.5581,-2.5579,-2.5572,-2.5544,-2.5537,-2.5514,-2.5508,-2.5527,-2.5472,-2.5475,-2.5468,-2.5464,-2.5429,-2.5427,-2.5426,-2.5457,-2.54,-2.5401,-2.5402,-2.5402,-2.5541,-2.5544,0,0,0,0,0,0,-2.559,-2.5581,-2.5573,-2.557,-2.5549,-2.5516,-2.5509,-2.5512,-2.5472,-2.5463,-2.5466,-2.5459,-2.5427,-2.5425,-2.5424,-2.5498,-2.5401,-2.5402,-2.5403,-2.5538,-2.5542,-2.5545,0,0,0,0,0,0,-2.559,-2.559,-2.5575,-2.5574,-2.557,-2.5519,-2.5523,-2.5512,-2.5511,-2.5465,-2.5455,-2.5474,-2.5424,-2.5423,-2.5453,-2.5495,-2.5403,-2.5403,-2.5535,-2.5539,-2.5544,-2.5646,0,0,0,0,0,0,-2.5591,-2.5591,-2.5614,-2.5575,-2.5571,-2.5605,-2.5525,-2.5514,-2.5512,-2.5503,-2.547,-2.5462,-2.5422,-2.5452,-2.5454,-2.5495,-2.5404,-2.5531,-2.5537,-2.5542,-2.5639,-2.5654,-2.5667,0,0,0,0,0,-2.5592,-2.5645,-2.5616,-2.5615,-2.5598,-2.5607,-2.5605,-2.5557,-2.5516,-2.554,-2.551,-2.5463,-2.549,-2.5456,-2.5458,-2.5499,-2.5528,-2.5535,-2.5542,-2.5633,-2.5651,-2.5667,0,0,0,0,0,0,-2.5692,-2.5639,-2.5606,-2.5648,-2.5633,-2.5591,-2.5619,-2.5577,-2.5574,-2.5565,-2.5507,-2.55,-2.5539,-2.5522,-2.5485,-2.556,-2.5501,-2.5509,-2.557,-2.5587,-2.5601,-2.5605,-2.5405,0,0,0,0,0,-2.5719,-2.5729,-2.5683,-2.5725,-2.5719,-2.5671,-2.5672,-2.5637,-2.5619,-2.5612,-2.5585,-2.557,-2.5575,-2.558,-2.5582,-2.5636,-2.5628,-2.5665,-2.5679,-2.5691,-2.5698,-2.5726,-2.5743,-2.5568,-2.5568,-2.5568,0,0,-2.5775,-2.5748,-2.5758,-2.5745,-2.5728,-2.5741,-2.5666,-2.5683,-2.5692,-2.5615,-2.5642,-2.5622,-2.5601,-2.5644,-2.5662,-2.5631,-2.5745,-2.57,-2.5709,-2.571,-2.5735,-2.5752,-2.5767,-2.5573,-2.5572,-2.5572,0,0,-2.5884,-2.5864,-2.5897,-2.5882,-2.5858,-2.5825,-2.5834,-2.5798,-2.5781,-2.5807,-2.5749,-2.576,-2.577,-2.5758,-2.5754,-2.5859,-2.5816,-2.5861,-2.5934,-2.5962,-2.5976,-2.5988,-2.6027,-2.6041,-2.5869,-2.5869,-2.5869,0,-2.5958,-2.5974,-2.592,-2.594,-2.5937,-2.5866,-2.59,-2.5888,-2.5867,-2.5867,-2.5832,-2.5844,-2.5825,-2.5864,-2.589,-2.5888,-2.5897,-2.5865,-2.5978,-2.5989,-2.6,-2.6036,-2.6051,-2.5875,-2.5874,-2.5873,-2.5873,0,-2.6066,-2.6078,-2.6108,-2.6088,-2.6087,-2.6115,-2.6066,-2.6072,-2.6037,-2.6008,-2.6036,-2.6011,-2.6008,-2.6014,-2.598,-2.6049,-2.6031,-2.5988,-2.5928,-2.6023,-2.6056,-2.607,-2.5883,-2.5881,-2.5879,-2.5878,0,0,-2.6238,-2.6187,-2.6199,-2.6189,-2.6158,-2.6167,-2.6191,-2.6186,-2.6194,-2.6181,-2.6201,-2.6211,-2.6171,-2.6166,-2.613,-2.6155,-2.6241,-2.6109,-2.6107,-2.6135,-2.6317,-2.635,-2.6367,-2.6211,-2.6214,-2.6216,-2.6319,0,-2.6341,-2.6379,-2.6331,-2.638,-2.6391,-2.6324,-2.6345,-2.6329,-2.6303,-2.631,-2.6282,-2.629,-2.6236,-2.6233,-2.6254,-2.6226,-2.6277,-2.6217,-2.6231,-2.6232,-2.6239,-2.6384,-2.6419,-2.6518,-2.6332,-2.6334,-2.6335,0,-2.6466,-2.6458,-2.6509,-2.6474,-2.6477,-2.6497,-2.6489,-2.6496,-2.6476,-2.6456,-2.645,-2.6406,-2.6429,-2.637,-2.6402,-2.6363,-2.6365,-2.6352,-2.6355,-2.6355,-2.629,-2.639,-2.6548,-2.6564,-2.6355,-2.6353,-2.6352,0,-2.6588,-2.659,-2.6621,-2.6614,-2.6574,-2.659,-2.6575,-2.6552,-2.6552,-2.6546,-2.6546,-2.6542,-2.6541,-2.654,-2.6497,-2.6458,-2.6535,-2.6471,-2.652,-2.6521,-2.654,-2.654,-2.6702,-2.654,-2.654,-2.6539,-2.6539,0,-2.6708,-2.6742,-2.6675,-2.6694,-2.673,-2.6675,-2.6712,-2.669,-2.667,-2.6685,-2.6626,-2.6642,-2.6583,-2.6592,-2.6559,-2.6591,-2.659,-2.6575,-2.6567,-2.6581,-2.6584,-2.6583,-2.6576,-2.6543,-2.6542,-2.6541,-2.6541,0,-2.6851,-2.6807,-2.6836,-2.6796,-2.6787,-2.6815,-2.6781,-2.6798,-2.6767,-2.6786,-2.6788,-2.6741,-2.6749,-2.6706,-2.6706,-2.6683,-2.6733,-2.6711,-2.6739,-2.6733,-2.6784,-2.678,-2.6953,-2.6974,-2.6797,-2.6799,-2.6801,0,-2.6932,-2.6956,-2.6918,-2.6923,-2.691,-2.6918,-2.6918,-2.6865,-2.6868,-2.6847,-2.6867,-2.6869,-2.6869,-2.6884,-2.6852,-2.6852,-2.6831,-2.6891,-2.683,-2.6845,-2.6833,-2.6833,-2.6836,-2.6905,-2.6907,-2.6909,-2.691,0,-2.708,-2.7057,-2.7058,-2.7053,-2.7054,-2.7047,-2.7036,-2.7044,-2.6986,-2.6992,-2.6999,-2.6999,-2.6998,-2.7002,-2.6996,-2.6981,-2.6937,-2.6929,-2.6941,-2.6957,-2.6973,-2.6966,-2.6775,-2.6926,-2.6924,-2.6923,-2.6922,-2.6922,-2.7195,-2.7213,-2.7189,-2.7193,-2.7179,-2.7171,-2.7184,-2.7156,-2.716,-2.7155,-2.7123,-2.7136,-2.7117,-2.7103,-2.7092,-2.7103,-2.7074,-2.709,-2.7094,-2.71,-2.7109,-2.697,-2.7101,-2.7101,-2.71,-2.71,-2.7099,0,-2.7341,-2.7322,-2.7326,-2.7312,-2.7316,-2.7272,-2.7258,-2.7264,-2.7276,-2.7261,-2.7261,-2.7269,-2.7273,-2.724,-2.724,-2.7254,-2.7234,-2.7256,-2.7255,-2.7253,-2.7134,-2.7125,-2.7272,-2.7272,-2.7272,-2.7272,-2.7272,-2.7272,-2.7417,-2.7446,-2.7421,-2.7443,-2.7424,-2.7436,-2.7432,-2.7424,-2.7411,-2.7423,-2.7425,-2.7403,-2.7382,-2.7379,-2.7381,-2.7371,-2.7375,-2.7404,-2.7388,-2.7278,-2.7261,-2.7245,-2.7236,-2.7405,-2.7405,-2.7505,-2.7506,-2.7507]},{"header":{"parameterUnit":"m.s-1","parameterCategory":1,"la1":30.2991,"la2":30.254,"lo1":-89.0895,"lo2":-89.0444,"dy":0.0017,"dx":0.0017,"nx":28,"ny":28,"refTime":"2024-10-17T21:00:00:Z","depth":0,"parameterNumber":3,"parameterNumberName":"V-component_of_WINDS"},"data":[0,0,0,0,0,0,0,0,0,0,0,0,0,0,0,0,0,0,0,0,0,0,0,0,0,0,0,0,0,0,0,0,0,0,0,0,0,0,0,0,0,0,0,0,0,0,0,0,0,0,0,0,0,0,0,0,0,0,-2.0391,-2.0391,0,-2.0353,-2.0352,-2.0352,-2.0287,-2.0286,-2.0285,-2.0283,-2.0244,-2.0244,-2.0245,0,0,0,0,0,0,0,0,0,0,0,0,0,-2.041,-2.041,-2.0391,-2.0391,-2.039,-2.0353,-2.0352,-2.0352,-2.0287,-2.0286,-2.0284,-2.0283,-2.0244,-2.0244,-2.0245,0,0,0,0,0,0,0,0,0,0,0,0,0,-2.0389,-2.041,-2.0391,-2.0354,-2.035,-2.0353,-2.0352,-2.0351,-2.0287,-2.0286,-2.0284,-2.0282,-2.0244,-2.0244,-2.0245,-2.0281,0,0,-2.0245,-2.0245,0,0,0,0,0,0,0,0,-2.0391,-2.0389,-2.036,-2.0356,-2.0352,-2.0323,-2.0344,-2.0328,-2.0288,-2.0311,-2.0283,-2.0281,-2.0272,-2.027,-2.0266,-2.028,-2.0278,-2.0245,-2.0245,-2.0245,-2.0245,0,0,0,0,0,0,0,-2.0392,-2.039,-2.0376,-2.0359,-2.0355,-2.0339,-2.0334,-2.0341,-2.0302,-2.0309,-2.0304,-2.03,-2.0269,-2.0266,-2.0265,-2.0277,-2.0245,-2.0245,-2.0245,-2.0245,-2.032,-2.0322,0,0,0,0,0,0,-2.0399,-2.0392,-2.0377,-2.0375,-2.0367,-2.034,-2.0334,-2.0334,-2.0302,-2.0295,-2.0302,-2.0298,-2.0267,-2.0265,-2.0263,-2.0305,-2.0245,-2.0245,-2.0245,-2.0318,-2.032,-2.0322,0,0,0,0,0,0,-2.04,-2.0398,-2.0379,-2.0382,-2.0378,-2.0341,-2.0341,-2.0334,-2.0331,-2.0297,-2.0289,-2.0306,-2.0266,-2.0263,-2.0278,-2.0303,-2.0245,-2.0245,-2.0316,-2.0319,-2.0321,-2.0389,0,0,0,0,0,0,-2.04,-2.0399,-2.0413,-2.0383,-2.0378,-2.0394,-2.0343,-2.0335,-2.0331,-2.0325,-2.0299,-2.0292,-2.0264,-2.0278,-2.0278,-2.0302,-2.0245,-2.0313,-2.0317,-2.032,-2.0385,-2.0394,-2.0402,0,0,0,0,0,-2.0401,-2.0433,-2.0414,-2.0412,-2.0395,-2.0395,-2.0393,-2.0359,-2.0334,-2.0347,-2.0325,-2.0293,-2.03,-2.028,-2.0279,-2.0304,-2.0311,-2.0316,-2.032,-2.0381,-2.0392,-2.0402,0,0,0,0,0,0,-2.0467,-2.0429,-2.0406,-2.043,-2.0416,-2.0384,-2.04,-2.0373,-2.0366,-2.0361,-2.032,-2.0314,-2.0334,-2.032,-2.0298,-2.0339,-2.0301,-2.0305,-2.0347,-2.0358,-2.0367,-2.037,-2.0246,0,0,0,0,0,-2.0484,-2.0488,-2.0454,-2.0478,-2.0472,-2.0438,-2.0437,-2.0412,-2.0397,-2.0391,-2.037,-2.0356,-2.0355,-2.0355,-2.0353,-2.0382,-2.0376,-2.0399,-2.0408,-2.0415,-2.042,-2.0435,-2.0445,-2.0336,-2.0336,-2.0336,0,0,-2.052,-2.0499,-2.0504,-2.0491,-2.0477,-2.0483,-2.0433,-2.0441,-2.0444,-2.0392,-2.0405,-2.0389,-2.0371,-2.0393,-2.0402,-2.0382,-2.0448,-2.042,-2.0427,-2.0427,-2.0441,-2.0451,-2.046,-2.0339,-2.0339,-2.0338,0,0,-2.0588,-2.0572,-2.0591,-2.0579,-2.0559,-2.0536,-2.054,-2.0513,-2.05,-2.0512,-2.0473,-2.0477,-2.0476,-2.0465,-2.0459,-2.0523,-2.0494,-2.0523,-2.057,-2.0585,-2.0594,-2.0601,-2.0625,-2.0634,-2.0528,-2.0528,-2.0528,0,-2.0635,-2.0641,-2.0604,-2.0614,-2.061,-2.0562,-2.0581,-2.057,-2.0551,-2.0549,-2.0527,-2.0526,-2.051,-2.053,-2.0545,-2.0542,-2.0546,-2.0527,-2.0596,-2.0603,-2.0609,-2.0632,-2.0641,-2.0531,-2.0531,-2.0531,-2.053,0,-2.0701,-2.0705,-2.0723,-2.0706,-2.0703,-2.0717,-2.0682,-2.0684,-2.0659,-2.0639,-2.0652,-2.0631,-2.0624,-2.0626,-2.0602,-2.0643,-2.0631,-2.0603,-2.0565,-2.0624,-2.0645,-2.0653,-2.0537,-2.0536,-2.0534,-2.0534,0,0,-2.081,-2.0772,-2.0779,-2.0771,-2.0746,-2.0749,-2.0761,-2.0754,-2.0757,-2.0745,-2.0755,-2.0755,-2.0729,-2.0722,-2.0697,-2.071,-2.0764,-2.068,-2.0679,-2.0697,-2.0808,-2.0831,-2.0842,-2.0743,-2.0745,-2.0746,-2.081,0,-2.0874,-2.0893,-2.086,-2.0887,-2.0891,-2.0846,-2.0857,-2.0843,-2.0824,-2.0825,-2.0803,-2.0805,-2.0769,-2.0765,-2.0776,-2.0755,-2.0785,-2.0749,-2.0753,-2.0754,-2.0761,-2.0852,-2.0876,-2.0938,-2.0818,-2.0819,-2.082,0,-2.0951,-2.0944,-2.0971,-2.0945,-2.0946,-2.0956,-2.0947,-2.0948,-2.0931,-2.0916,-2.091,-2.0879,-2.089,-2.0852,-2.0866,-2.0842,-2.0842,-2.0831,-2.0833,-2.0833,-2.0792,-2.0856,-2.0956,-2.0966,-2.0832,-2.0831,-2.083,0,-2.1031,-2.1027,-2.1043,-2.1037,-2.1006,-2.1015,-2.1003,-2.0984,-2.0982,-2.0974,-2.0972,-2.0965,-2.0962,-2.0958,-2.0927,-2.0901,-2.0945,-2.0904,-2.0934,-2.0935,-2.0947,-2.0947,-2.105,-2.0944,-2.0944,-2.0944,-2.0943,0,-2.1106,-2.1125,-2.1078,-2.1088,-2.1108,-2.107,-2.1091,-2.1074,-2.1058,-2.1064,-2.1024,-2.1031,-2.0988,-2.0991,-2.0966,-2.0983,-2.0981,-2.097,-2.0963,-2.0974,-2.0976,-2.0975,-2.097,-2.0946,-2.0946,-2.0945,-2.0945,0,-2.1199,-2.1168,-2.1183,-2.1152,-2.1145,-2.1161,-2.1135,-2.1144,-2.1122,-2.113,-2.113,-2.1096,-2.1096,-2.1064,-2.1058,-2.1042,-2.107,-2.1055,-2.1076,-2.1072,-2.1104,-2.1102,-2.1211,-2.1224,-2.1109,-2.111,-2.1111,0,-2.125,-2.1264,-2.1235,-2.1236,-2.1226,-2.1228,-2.1226,-2.1188,-2.1188,-2.117,-2.1181,-2.1178,-2.1174,-2.1177,-2.1152,-2.1148,-2.1133,-2.1171,-2.1132,-2.1143,-2.1135,-2.1136,-2.1137,-2.118,-2.1182,-2.1183,-2.1184,0,-2.1345,-2.1329,-2.1327,-2.132,-2.1318,-2.1311,-2.1301,-2.1304,-2.1263,-2.1264,-2.1265,-2.1262,-2.1256,-2.1254,-2.1245,-2.1232,-2.1202,-2.1196,-2.1203,-2.1215,-2.1228,-2.1223,-2.11,-2.1194,-2.1193,-2.1193,-2.1192,-2.1192,-2.1419,-2.1429,-2.1411,-2.141,-2.1399,-2.139,-2.1397,-2.1376,-2.1375,-2.1368,-2.1345,-2.135,-2.1333,-2.1317,-2.1307,-2.131,-2.1291,-2.1301,-2.1304,-2.1307,-2.1314,-2.1226,-2.1308,-2.1308,-2.1308,-2.1307,-2.1307,0,-2.1513,-2.1499,-2.1499,-2.1486,-2.1486,-2.1456,-2.1444,-2.1446,-2.145,-2.1436,-2.1433,-2.1434,-2.1432,-2.1407,-2.1402,-2.141,-2.1396,-2.141,-2.141,-2.1408,-2.1331,-2.1326,-2.1421,-2.1421,-2.1421,-2.1421,-2.1421,-2.1421,-2.1562,-2.1578,-2.156,-2.1571,-2.1556,-2.156,-2.1555,-2.1548,-2.1537,-2.154,-2.1538,-2.1521,-2.1503,-2.1497,-2.1494,-2.1486,-2.1487,-2.1507,-2.1495,-2.1424,-2.1413,-2.1402,-2.1398,-2.1507,-2.1507,-2.1571,-2.1572,-2.1572]}]]